Location: Buisson
(44.2787°N, 4.9969°E)
Time: 06:10:29
(UTC+00:00)

SL-08 R/B - Pass Details

Date: 18 April 2021
Orbit: 673 x 740 km, 98.5° (Epoch: 05 May)

Event Time Altitude Azimuth Distance (km) Brightness Sun altitude
Exits shadow 03:13:33 - 179° (S) 2,295 5.6 -16.6°
Reaches altitude 10° 03:13:43 10° 180° (S) 2,231 5.6 -16.6°
Maximum altitude 03:18:33 57° 259° (W) 853 3.4 -15.9°
Drops below altitude 10° 03:23:21 10° 338° (NNW) 2,215 6.0 -15.2°
Sets 03:25:39 0° 343° (NNW) 3,129 6.9 -14.8°
